[[{"header":{"parameterUnit":"m.s-1","parameterCategory":2,"la1":30.2991,"la2":30.254,"lo1":-89.0895,"lo2":-89.0444,"dy":0.0017,"dx":0.0017,"nx":28,"ny":28,"refTime":"2024-05-20T09:00:00:Z","depth":"0","parameterNumber":2,"parameterNumberName":"U-component_of_CURRENTS"},"data":[0,0,0,0,0,0,0,0,0,0,0,0,0,0,0,0,0,0,0,0,0,0,0,0,0,0,0,0,0,0,0,0,0,0,0,0,0,0,0,0,0,0,0,0,0,0,0,0,0,0,0,0,0,0,0,0,0,0,-0.2869,-0.2868,0,-0.2785,-0.2784,-0.2782,-0.2696,-0.2695,-0.2694,-0.2694,-0.2569,-0.2566,-0.2563,0,0,0,0,0,0,0,0,0,0,0,0,0,-0.2854,-0.2855,-0.2869,-0.2868,-0.2868,-0.2785,-0.2784,-0.2782,-0.2696,-0.2695,-0.2694,-0.2693,-0.2569,-0.2566,-0.2563,0,0,0,0,0,0,0,0,0,0,0,0,0,-0.282,-0.2856,-0.2869,-0.2819,-0.2814,-0.2786,-0.2784,-0.2782,-0.2696,-0.2695,-0.2694,-0.2693,-0.257,-0.2567,-0.2563,-0.2559,0,0,-0.255,-0.2549,0,0,0,0,0,0,0,0,-0.2822,-0.282,-0.2827,-0.2822,-0.2817,-0.2755,-0.2733,-0.2707,-0.2696,-0.2735,-0.2694,-0.2693,-0.2631,-0.2622,-0.2602,-0.2553,-0.2547,-0.255,-0.2547,-0.2546,-0.2545,0,0,0,0,0,0,0,-0.2825,-0.2822,-0.283,-0.2826,-0.282,-0.2767,-0.2761,-0.2727,-0.2685,-0.2731,-0.2726,-0.2726,-0.2627,-0.2606,-0.2598,-0.2545,-0.255,-0.2546,-0.2544,-0.2542,-0.2503,-0.2505,0,0,0,0,0,0,-0.2853,-0.2826,-0.2833,-0.2828,-0.2823,-0.2769,-0.2762,-0.2771,-0.2686,-0.2674,-0.2727,-0.2723,-0.2613,-0.2603,-0.2593,-0.2636,-0.2546,-0.2542,-0.254,-0.2502,-0.2504,-0.2505,0,0,0,0,0,0,-0.2853,-0.2855,-0.2836,-0.2828,-0.2823,-0.2772,-0.2781,-0.277,-0.2753,-0.2684,-0.267,-0.2723,-0.2612,-0.2599,-0.2575,-0.2629,-0.254,-0.2536,-0.25,-0.2502,-0.2504,-0.2688,0,0,0,0,0,0,-0.2853,-0.2855,-0.2865,-0.2831,-0.2825,-0.2847,-0.2783,-0.2769,-0.2757,-0.2749,-0.2676,-0.2663,-0.261,-0.2581,-0.2571,-0.2621,-0.2533,-0.2498,-0.2501,-0.2504,-0.2681,-0.2696,-0.271,0,0,0,0,0,-0.2853,-0.2891,-0.2866,-0.2867,-0.2842,-0.285,-0.2842,-0.2796,-0.2758,-0.2771,-0.2711,-0.2665,-0.259,-0.2579,-0.2566,-0.2617,-0.2497,-0.25,-0.2503,-0.2674,-0.2693,-0.271,0,0,0,0,0,0,-0.2888,-0.2885,-0.2857,-0.289,-0.2878,-0.2838,-0.2845,-0.2809,-0.277,-0.2762,-0.2679,-0.2664,-0.2664,-0.2609,-0.2599,-0.261,-0.2538,-0.2538,-0.2672,-0.2689,-0.2704,-0.27,-0.253,0,0,0,0,0,-0.2902,-0.2923,-0.291,-0.2928,-0.2934,-0.2887,-0.2879,-0.2858,-0.2823,-0.2803,-0.2748,-0.2694,-0.2667,-0.2652,-0.2613,-0.262,-0.2556,-0.2642,-0.2657,-0.2671,-0.2657,-0.264,-0.2653,-0.2515,-0.2515,-0.2515,0,0,-0.2916,-0.2917,-0.2926,-0.2936,-0.2918,-0.2952,-0.2879,-0.2894,-0.2913,-0.2798,-0.2798,-0.2744,-0.2677,-0.2687,-0.2683,-0.265,-0.2674,-0.2674,-0.2687,-0.2665,-0.2645,-0.2658,-0.267,-0.2517,-0.2517,-0.2517,0,0,-0.2977,-0.2964,-0.3012,-0.3018,-0.3022,-0.3003,-0.3017,-0.2992,-0.2974,-0.2972,-0.2898,-0.2869,-0.282,-0.2787,-0.2764,-0.2832,-0.2751,-0.2829,-0.2907,-0.2893,-0.2904,-0.2913,-0.2846,-0.2847,-0.284,-0.2841,-0.2841,0,-0.2993,-0.3045,-0.3024,-0.3078,-0.3088,-0.3039,-0.3093,-0.3082,-0.3047,-0.3034,-0.2998,-0.2919,-0.2869,-0.2873,-0.2896,-0.2869,-0.2825,-0.2855,-0.2915,-0.2923,-0.2929,-0.2857,-0.2857,-0.285,-0.2849,-0.2848,-0.2847,0,-0.3094,-0.3131,-0.3164,-0.3208,-0.3224,-0.3261,-0.3256,-0.3259,-0.3222,-0.3192,-0.3176,-0.31,-0.3043,-0.3044,-0.2989,-0.3017,-0.2959,-0.2939,-0.2878,-0.2954,-0.2873,-0.2869,-0.2863,-0.286,-0.2857,-0.2855,0,0,-0.3119,-0.3218,-0.3223,-0.3235,-0.3294,-0.3292,-0.3364,-0.3377,-0.3369,-0.3351,-0.3335,-0.3305,-0.3235,-0.32,-0.3137,-0.3124,-0.3134,-0.3059,-0.3054,-0.3004,-0.3067,-0.2898,-0.2876,-0.314,-0.314,-0.3141,-0.2991,0,-0.3189,-0.3291,-0.3343,-0.3405,-0.3434,-0.3443,-0.3487,-0.3492,-0.347,-0.3443,-0.3394,-0.3344,-0.3307,-0.3259,-0.3261,-0.3137,-0.3132,-0.3172,-0.2986,-0.2979,-0.2832,-0.287,-0.2724,-0.2568,-0.2987,-0.2986,-0.2985,0,-0.326,-0.3301,-0.3392,-0.344,-0.3457,-0.3492,-0.3498,-0.3536,-0.3534,-0.3515,-0.35,-0.3435,-0.3393,-0.335,-0.3241,-0.327,-0.319,-0.3113,-0.3106,-0.2874,-0.2803,-0.2557,-0.2544,-0.2533,-0.2978,-0.2979,-0.2979,0,-0.3199,-0.3323,-0.3372,-0.3394,-0.3462,-0.3483,-0.3511,-0.3532,-0.3496,-0.3531,-0.3464,-0.348,-0.3358,-0.3349,-0.3177,-0.3221,-0.3026,-0.3066,-0.2849,-0.2834,-0.2628,-0.2594,-0.2585,-0.3023,-0.3024,-0.3024,-0.3025,0,-0.3217,-0.3241,-0.3329,-0.3325,-0.3291,-0.342,-0.3381,-0.3411,-0.3443,-0.3334,-0.3452,-0.3322,-0.3345,-0.3223,-0.3184,-0.2953,-0.3032,-0.2843,-0.2789,-0.2684,-0.2658,-0.2568,-0.2593,-0.3019,-0.302,-0.3021,-0.3022,0,-0.3095,-0.3208,-0.3177,-0.3238,-0.3235,-0.3179,-0.319,-0.3151,-0.3255,-0.3117,-0.3108,-0.313,-0.2992,-0.2983,-0.2877,-0.284,-0.2652,-0.2639,-0.2481,-0.2411,-0.2231,-0.2271,-0.2118,-0.2073,-0.241,-0.2405,-0.2401,0,-0.3043,-0.3026,-0.2981,-0.2916,-0.2918,-0.2888,-0.2833,-0.2962,-0.2912,-0.2923,-0.28,-0.2729,-0.2591,-0.2432,-0.2389,-0.2316,-0.2371,-0.2141,-0.2217,-0.218,-0.2187,-0.2228,-0.2209,-0.2017,-0.201,-0.2004,-0.2,0,-0.2824,-0.2793,-0.2732,-0.2608,-0.2521,-0.244,-0.2409,-0.2346,-0.2463,-0.2418,-0.2312,-0.2261,-0.2117,-0.1986,-0.1935,-0.1897,-0.2079,-0.2016,-0.204,-0.1915,-0.1896,-0.1838,-0.2138,-0.1948,-0.1954,-0.1957,-0.196,-0.1962,-0.2575,-0.2446,-0.2374,-0.2244,-0.2136,-0.2027,-0.1928,-0.1938,-0.1864,-0.1787,-0.1841,-0.1717,-0.1683,-0.1601,-0.157,-0.1503,-0.1628,-0.1511,-0.1568,-0.1619,-0.1562,-0.171,-0.1428,-0.143,-0.1432,-0.1434,-0.1435,0,-0.2291,-0.2201,-0.2044,-0.1893,-0.1726,-0.1776,-0.1652,-0.1574,-0.1444,-0.1354,-0.1299,-0.1211,-0.1145,-0.1178,-0.1156,-0.1111,-0.1166,-0.112,-0.1203,-0.1215,-0.1377,-0.1347,-0.0958,-0.0958,-0.0958,-0.0958,-0.0958,-0.0958,-0.2122,-0.1929,-0.1871,-0.1555,-0.1462,-0.1251,-0.116,-0.1055,-0.0972,-0.0789,-0.0706,-0.0689,-0.0832,-0.0949,-0.0949,-0.0929,-0.0991,-0.0895,-0.1005,-0.1185,-0.123,-0.1273,-0.1254,-0.0852,-0.0852,-0.0795,-0.0794,-0.0794]},{"header":{"parameterUnit":"m.s-1","parameterCategory":2,"la1":30.2991,"la2":30.254,"lo1":-89.0895,"lo2":-89.0444,"dy":0.0017,"dx":0.0017,"nx":28,"ny":28,"refTime":"2024-05-20T09:00:00:Z","depth":"0","parameterNumber":3,"parameterNumberName":"V-component_of_CURRENTS"},"data":[0,0,0,0,0,0,0,0,0,0,0,0,0,0,0,0,0,0,0,0,0,0,0,0,0,0,0,0,0,0,0,0,0,0,0,0,0,0,0,0,0,0,0,0,0,0,0,0,0,0,0,0,0,0,0,0,0,0,0.012,0.012,0,0.0176,0.0176,0.0177,0.0196,0.0196,0.0196,0.0195,0.0251,0.0253,0.0254,0,0,0,0,0,0,0,0,0,0,0,0,0,0.0105,0.0105,0.012,0.012,0.0121,0.0176,0.0176,0.0177,0.0196,0.0196,0.0196,0.0195,0.025,0.0253,0.0255,0,0,0,0,0,0,0,0,0,0,0,0,0,0.0132,0.0105,0.0119,0.0137,0.0139,0.0175,0.0176,0.0177,0.0196,0.0196,0.0196,0.0195,0.025,0.0252,0.0255,0.0279,0,0,0.0263,0.0264,0,0,0,0,0,0,0,0,0.013,0.0132,0.0133,0.0135,0.0138,0.0178,0.0192,0.0211,0.0197,0.0175,0.0195,0.0195,0.0226,0.0231,0.0243,0.0282,0.0284,0.0263,0.0265,0.0266,0.0267,0,0,0,0,0,0,0,0.0128,0.013,0.0142,0.0134,0.0137,0.0167,0.017,0.0196,0.0203,0.0177,0.0178,0.0184,0.0228,0.0241,0.0245,0.0285,0.0263,0.0265,0.0267,0.0268,0.0383,0.0384,0,0,0,0,0,0,0.0116,0.0128,0.0141,0.0144,0.0132,0.0168,0.0171,0.0166,0.0203,0.0208,0.0184,0.0184,0.0237,0.0242,0.0247,0.0309,0.0266,0.0268,0.027,0.0381,0.0383,0.0385,0,0,0,0,0,0,0.0116,0.0117,0.0138,0.0138,0.0142,0.0168,0.0163,0.0167,0.018,0.0208,0.0213,0.0192,0.0236,0.0243,0.0281,0.031,0.0269,0.0272,0.038,0.0382,0.0384,0.0414,0,0,0,0,0,0,0.0115,0.0116,0.0107,0.0136,0.0142,0.0162,0.0163,0.0169,0.0184,0.0185,0.0217,0.0221,0.0237,0.0277,0.0284,0.0313,0.0274,0.0378,0.0381,0.0383,0.0411,0.0417,0.0422,0,0,0,0,0,0.0114,0.0097,0.0106,0.0108,0.0129,0.0163,0.0169,0.0186,0.0185,0.0195,0.0221,0.022,0.0299,0.028,0.0288,0.0318,0.0376,0.038,0.0383,0.0408,0.0415,0.0421,0,0,0,0,0,0,0.0082,0.0099,0.0108,0.0096,0.0131,0.0166,0.0168,0.0187,0.0216,0.0213,0.0238,0.0245,0.029,0.0301,0.0279,0.0361,0.0339,0.0344,0.0356,0.0362,0.0368,0.0337,0.0276,0,0,0,0,0,0.0073,0.0059,0.0099,0.0087,0.0105,0.0139,0.0153,0.0171,0.0201,0.0212,0.0238,0.027,0.0311,0.0331,0.0361,0.0404,0.0409,0.043,0.0435,0.044,0.0421,0.047,0.0477,0.0396,0.0396,0.0396,0,0,0.0054,0.0061,0.0053,0.008,0.0102,0.0128,0.0146,0.0167,0.0193,0.0214,0.025,0.0286,0.0325,0.0377,0.0398,0.0389,0.0468,0.0444,0.0448,0.0426,0.0474,0.0482,0.0489,0.0398,0.0398,0.0397,0,0,0.0008,0.0023,0.0002,0.0039,0.0076,0.0111,0.0118,0.0166,0.0192,0.0238,0.0265,0.0317,0.0368,0.0413,0.044,0.0492,0.0492,0.0506,0.0513,0.0561,0.0568,0.0574,0.0595,0.0603,0.0512,0.0512,0.0512,0,-0.0018,-0.0035,0.0005,0.0014,0.0038,0.0102,0.0111,0.0159,0.0214,0.024,0.0249,0.0349,0.0387,0.046,0.0483,0.0504,0.0517,0.0485,0.0567,0.0573,0.0578,0.0599,0.0607,0.0514,0.0514,0.0514,0.0513,0,-0.007,-0.0064,-0.0067,-0.0037,0.0006,0.0021,0.0104,0.0148,0.019,0.0239,0.0314,0.0379,0.0432,0.0473,0.0494,0.0563,0.0554,0.0565,0.0546,0.0588,0.0608,0.0615,0.0517,0.0516,0.0515,0.0515,0,0,-0.0197,-0.0124,-0.013,-0.0106,-0.0021,0.0005,0.0072,0.0144,0.0183,0.0262,0.031,0.0409,0.0443,0.0475,0.0526,0.0579,0.0645,0.0585,0.0587,0.0597,0.0731,0.0681,0.0684,0.0671,0.0672,0.0673,0.0731,0,-0.026,-0.0276,-0.0199,-0.0174,-0.0168,-0.0048,0.0013,0.0101,0.0178,0.0251,0.0347,0.0412,0.0448,0.0482,0.0543,0.0619,0.0664,0.0626,0.0696,0.0697,0.064,0.0692,0.0693,0.0741,0.0739,0.074,0.0741,0,-0.0357,-0.0349,-0.0359,-0.0247,-0.0227,-0.0177,-0.007,-0.0004,0.0136,0.0204,0.0294,0.0369,0.0472,0.0492,0.0627,0.0599,0.0654,0.0712,0.0716,0.0655,0.0661,0.0699,0.0754,0.0842,0.0752,0.0751,0.075,0,-0.052,-0.0455,-0.0473,-0.044,-0.0306,-0.026,-0.0181,-0.0042,0.0036,0.0163,0.0229,0.0352,0.0419,0.0515,0.063,0.0632,0.0764,0.0784,0.0788,0.0784,0.0789,0.0783,0.0925,0.0861,0.0861,0.0861,0.0861,0,-0.0641,-0.0639,-0.0546,-0.0548,-0.0522,-0.0382,-0.0312,-0.0212,-0.005,0.0038,0.0178,0.0258,0.0429,0.0532,0.0623,0.072,0.0757,0.0784,0.08,0.0799,0.0794,0.087,0.0894,0.0863,0.0863,0.0862,0.0862,0,-0.0798,-0.0754,-0.0747,-0.0636,-0.06,-0.0584,-0.0385,-0.0307,-0.0164,-0.0048,-0.0005,0.02,0.0323,0.0475,0.0635,0.0702,0.084,0.0824,0.0793,0.0803,0.0868,0.0892,0.0974,0.1019,0.0839,0.0839,0.0838,0,-0.0869,-0.0899,-0.0842,-0.0815,-0.0753,-0.0681,-0.0598,-0.0412,-0.031,-0.0092,-0.0042,0.0118,0.0239,0.0451,0.0593,0.0735,0.081,0.0806,0.0809,0.0868,0.0909,0.0916,0.0949,0.0841,0.084,0.0839,0.0839,0,-0.0967,-0.0962,-0.0946,-0.0919,-0.0853,-0.0767,-0.0639,-0.0586,-0.0365,-0.023,-0.0068,0.0042,0.0231,0.0411,0.0585,0.0666,0.0845,0.0795,0.0895,0.094,0.0922,0.0973,0.0788,0.0834,0.0835,0.0835,0.0835,0.0836,-0.101,-0.1031,-0.1003,-0.0954,-0.0895,-0.0811,-0.0743,-0.0581,-0.0429,-0.0125,-0.0064,0.0255,0.0335,0.0583,0.0649,0.0813,0.0798,0.0886,0.0916,0.0922,0.0946,0.0716,0.075,0.075,0.075,0.075,0.075,0,-0.1015,-0.1013,-0.0993,-0.0931,-0.0854,-0.0815,-0.0703,-0.0588,-0.0412,-0.0044,0.0203,0.0576,0.0685,0.08,0.091,0.0976,0.1008,0.1015,0.1074,0.111,0.0957,0.0938,0.0968,0.0967,0.0967,0.0967,0.0967,0.0967,-0.1001,-0.0987,-0.0967,-0.0854,-0.0807,-0.0698,-0.0639,-0.0488,-0.0227,0.0315,0.0771,0.1067,0.1114,0.11,0.1174,0.1173,0.1277,0.121,0.1281,0.1223,0.1215,0.1208,0.1201,0.1285,0.1285,0.1442,0.1444,0.1445]}],[{"header":{"parameterUnit":"m.s-1","parameterCategory":2,"la1":30.2991,"la2":30.254,"lo1":-89.0895,"lo2":-89.0444,"dy":0.0017,"dx":0.0017,"nx":28,"ny":28,"refTime":"2024-05-20T09:00:00:Z","depth":"2","parameterNumber":2,"parameterNumberName":"U-component_of_CURRENTS"},"data":[0,0,0,0,0,0,0,0,0,0,0,0,0,0,0,0,0,0,0,0,0,0,0,0,0,0,0,0,0,0,0,0,0,0,0,0,0,0,0,0,0,0,0,0,0,0,0,0,0,0,0,0,0,0,0,0,0,0,-0.2006,-0.2006,0,-0.1939,-0.1938,-0.1937,-0.1929,-0.1931,-0.1932,-0.1933,-0.185,-0.1847,-0.1844,0,0,0,0,0,0,0,0,0,0,0,0,0,-0.1876,-0.1879,-0.2006,-0.2006,-0.2006,-0.1939,-0.1938,-0.1936,-0.1929,-0.1931,-0.1932,-0.1933,-0.1851,-0.1847,-0.1843,0,0,0,0,0,0,0,0,0,0,0,0,0,-0.1879,-0.1881,-0.2007,-0.1997,-0.1996,-0.1939,-0.1938,-0.1936,-0.1929,-0.1931,-0.1932,-0.1934,-0.1852,-0.1848,-0.1843,-0.1781,0,0,-0.1828,-0.1826,0,0,0,0,0,0,0,0,-0.1879,-0.1884,-0.1999,-0.1998,-0.1996,-0.1948,-0.1861,-0.1885,-0.1929,-0.195,-0.1933,-0.1935,-0.1883,-0.1876,-0.1853,-0.1777,-0.1773,-0.1828,-0.1825,-0.1823,-0.1821,0,0,0,0,0,0,0,-0.1879,-0.1885,-0.1975,-0.1999,-0.1997,-0.191,-0.1914,-0.1864,-0.1904,-0.1948,-0.1948,-0.1947,-0.1882,-0.1858,-0.1852,-0.1772,-0.1828,-0.1824,-0.1821,-0.1819,-0.1698,-0.1698,0,0,0,0,0,0,-0.1909,-0.1887,-0.1978,-0.1974,-0.1945,-0.1912,-0.1916,-0.1958,-0.1905,-0.19,-0.1946,-0.1947,-0.1866,-0.1857,-0.1849,-0.1864,-0.1823,-0.1818,-0.1815,-0.1698,-0.1698,-0.1697,0,0,0,0,0,0,-0.1907,-0.1919,-0.198,-0.1928,-0.1931,-0.1915,-0.196,-0.1956,-0.1956,-0.1905,-0.1899,-0.1954,-0.1866,-0.1855,-0.1815,-0.1857,-0.1816,-0.1812,-0.1699,-0.1698,-0.1698,-0.1835,0,0,0,0,0,0,-0.1904,-0.192,-0.1958,-0.1933,-0.1936,-0.1981,-0.1959,-0.1954,-0.1954,-0.1955,-0.1909,-0.1901,-0.1867,-0.1823,-0.1811,-0.185,-0.1808,-0.1699,-0.1698,-0.1698,-0.1831,-0.1839,-0.1846,0,0,0,0,0,-0.19,-0.1954,-0.1961,-0.1972,-0.1991,-0.1982,-0.1976,-0.1962,-0.1953,-0.1965,-0.1917,-0.1904,-0.1811,-0.1818,-0.1804,-0.1843,-0.1699,-0.1698,-0.1698,-0.1827,-0.1838,-0.1846,0,0,0,0,0,0,-0.1895,-0.1957,-0.1965,-0.2031,-0.2022,-0.1984,-0.1992,-0.1972,-0.1941,-0.1943,-0.1888,-0.1877,-0.1858,-0.1815,-0.1824,-0.1801,-0.1757,-0.1753,-0.186,-0.1869,-0.1877,-0.1913,-0.1804,0,0,0,0,0,-0.1919,-0.1994,-0.1999,-0.2047,-0.2052,-0.202,-0.2014,-0.2005,-0.1973,-0.1962,-0.1925,-0.1878,-0.1836,-0.1827,-0.1778,-0.176,-0.1715,-0.1775,-0.1783,-0.1791,-0.1806,-0.179,-0.1799,-0.1695,-0.1695,-0.1695,0,0,-0.1929,-0.197,-0.2011,-0.2053,-0.2043,-0.2065,-0.2021,-0.2028,-0.2041,-0.1955,-0.1956,-0.1897,-0.1831,-0.1817,-0.1807,-0.1796,-0.1784,-0.179,-0.1797,-0.1809,-0.179,-0.1801,-0.1811,-0.1695,-0.1695,-0.1695,0,0,-0.1969,-0.2025,-0.209,-0.2102,-0.2113,-0.21,-0.2111,-0.2087,-0.2081,-0.2059,-0.2003,-0.1967,-0.1905,-0.1875,-0.1848,-0.1861,-0.1816,-0.1851,-0.1938,-0.1923,-0.1933,-0.1941,-0.1857,-0.1857,-0.1869,-0.187,-0.187,0,-0.1975,-0.205,-0.2093,-0.2139,-0.2149,-0.2128,-0.2158,-0.2153,-0.2115,-0.2104,-0.2084,-0.1989,-0.1937,-0.1921,-0.1932,-0.1887,-0.1848,-0.1919,-0.1939,-0.1946,-0.1952,-0.1865,-0.1863,-0.1876,-0.1875,-0.1875,-0.1874,0,-0.2044,-0.21,-0.2129,-0.2205,-0.2233,-0.2242,-0.2257,-0.2273,-0.2254,-0.2223,-0.2195,-0.2114,-0.2066,-0.2046,-0.1997,-0.2015,-0.1959,-0.1946,-0.1931,-0.1972,-0.1875,-0.187,-0.1885,-0.1883,-0.1881,-0.1879,0,0,-0.2004,-0.2156,-0.2143,-0.2193,-0.2257,-0.2274,-0.2341,-0.2352,-0.2343,-0.2339,-0.2311,-0.2275,-0.2227,-0.2191,-0.2128,-0.212,-0.2111,-0.2071,-0.2067,-0.2014,-0.2037,-0.1955,-0.194,-0.2123,-0.2124,-0.2124,-0.1939,0,-0.2005,-0.2119,-0.2183,-0.2252,-0.2308,-0.2351,-0.2395,-0.2425,-0.2396,-0.2363,-0.2337,-0.2269,-0.2286,-0.2231,-0.2252,-0.2109,-0.2113,-0.216,-0.1981,-0.1974,-0.1921,-0.1939,-0.1817,-0.1641,-0.1934,-0.1933,-0.1933,0,-0.2007,-0.2081,-0.2181,-0.229,-0.2308,-0.2358,-0.2403,-0.2438,-0.2435,-0.2412,-0.2413,-0.2331,-0.2312,-0.23,-0.2218,-0.2251,-0.2183,-0.2098,-0.2089,-0.197,-0.1887,-0.165,-0.1621,-0.1924,-0.1925,-0.1926,-0.1926,0,-0.1924,-0.2055,-0.2139,-0.2177,-0.2309,-0.2359,-0.2418,-0.245,-0.2427,-0.2431,-0.235,-0.2367,-0.2266,-0.2275,-0.2133,-0.2176,-0.1993,-0.2018,-0.1889,-0.1878,-0.1716,-0.1691,-0.1999,-0.2,-0.2,-0.2001,-0.2001,0,-0.187,-0.1914,-0.212,-0.2134,-0.2192,-0.2341,-0.2335,-0.2395,-0.2403,-0.2326,-0.2364,-0.2249,-0.2255,-0.2133,-0.2114,-0.1963,-0.1995,-0.1901,-0.1843,-0.1751,-0.1733,-0.1942,-0.1938,-0.1993,-0.1995,-0.1996,-0.1998,0,-0.176,-0.188,-0.1969,-0.212,-0.2155,-0.2212,-0.2273,-0.2243,-0.23,-0.2195,-0.2186,-0.2114,-0.1989,-0.1947,-0.184,-0.1843,-0.1757,-0.1704,-0.1562,-0.1495,-0.1656,-0.1661,-0.156,-0.1555,-0.1552,-0.1549,-0.1547,0,-0.1718,-0.1779,-0.1924,-0.1925,-0.1981,-0.2066,-0.2068,-0.218,-0.2131,-0.2078,-0.1984,-0.1851,-0.1725,-0.1551,-0.1532,-0.1477,-0.1581,-0.1333,-0.1434,-0.1666,-0.162,-0.163,-0.1639,-0.1233,-0.1229,-0.1225,-0.1222,0,-0.1606,-0.1683,-0.1728,-0.1765,-0.1779,-0.1792,-0.1824,-0.1782,-0.1866,-0.1797,-0.1677,-0.1591,-0.1425,-0.1295,-0.1229,-0.1209,-0.1357,-0.1252,-0.1507,-0.1389,-0.1351,-0.1309,-0.133,-0.1187,-0.119,-0.1193,-0.1195,-0.1196,-0.1505,-0.1508,-0.1567,-0.1572,-0.1577,-0.1529,-0.1477,-0.1497,-0.1446,-0.1359,-0.1386,-0.125,-0.1207,-0.1043,-0.0989,-0.0973,-0.1092,-0.1085,-0.11,-0.1118,-0.1139,-0.1101,-0.0888,-0.0889,-0.0891,-0.0892,-0.0893,0,-0.1363,-0.1359,-0.1355,-0.1338,-0.1263,-0.1339,-0.1288,-0.122,-0.1126,-0.1114,-0.1054,-0.0915,-0.082,-0.0808,-0.0727,-0.0731,-0.0765,-0.0713,-0.0762,-0.0795,-0.0824,-0.0836,-0.05,-0.05,-0.0499,-0.0498,0,0,-0.1269,-0.1203,-0.1193,-0.1021,-0.1014,-0.0894,-0.0844,-0.0794,-0.077,-0.0698,-0.0672,-0.0729,-0.0749,-0.0611,-0.059,-0.0525,-0.0657,-0.0501,-0.0809,-0.0895,-0.0924,-0.1023,-0.1075,0,0,0,0,0]},{"header":{"parameterUnit":"m.s-1","parameterCategory":2,"la1":30.2991,"la2":30.254,"lo1":-89.0895,"lo2":-89.0444,"dy":0.0017,"dx":0.0017,"nx":28,"ny":28,"refTime":"2024-05-20T09:00:00:Z","depth":"2","parameterNumber":3,"parameterNumberName":"V-component_of_CURRENTS"},"data":[0,0,0,0,0,0,0,0,0,0,0,0,0,0,0,0,0,0,0,0,0,0,0,0,0,0,0,0,0,0,0,0,0,0,0,0,0,0,0,0,0,0,0,0,0,0,0,0,0,0,0,0,0,0,0,0,0,0,-0.0082,-0.0081,0,0.0044,0.0045,0.0046,0.0069,0.0068,0.0067,0.0067,0.0132,0.0135,0.0137,0,0,0,0,0,0,0,0,0,0,0,0,0,-0.0333,-0.0329,-0.0082,-0.008,-0.0078,0.0044,0.0045,0.0047,0.0069,0.0068,0.0067,0.0066,0.0131,0.0134,0.0137,0,0,0,0,0,0,0,0,0,0,0,0,0,-0.0221,-0.0328,-0.0083,-0.005,-0.0045,0.0044,0.0045,0.0047,0.0069,0.0068,0.0067,0.0066,0.0131,0.0134,0.0138,0.018,0,0,0.0148,0.015,0,0,0,0,0,0,0,0,-0.0228,-0.0213,-0.0056,-0.0052,-0.0046,0.0043,-0.0019,0.009,0.0069,0.0021,0.0067,0.0066,0.01,0.0106,0.0127,0.0183,0.0185,0.0149,0.0151,0.0152,0.0153,0,0,0,0,0,0,0,-0.0235,-0.0218,-0.0037,-0.0054,-0.0048,-0.0051,-0.0036,0.0001,0.0061,0.0025,0.0028,0.0049,0.0102,0.0124,0.0129,0.0186,0.0149,0.0152,0.0154,0.0155,0.0273,0.0274,0,0,0,0,0,0,-0.0239,-0.0225,-0.004,-0.0032,-0.0137,-0.0045,-0.0029,0.0012,0.0062,0.007,0.005,0.005,0.0118,0.0125,0.0131,0.0172,0.0152,0.0156,0.0158,0.0272,0.0273,0.0274,0,0,0,0,0,0,-0.0245,-0.0223,-0.0045,-0.0124,-0.0101,-0.0039,0.0006,0.0015,0.0034,0.0082,0.0088,0.0059,0.0118,0.0126,0.016,0.0175,0.0157,0.016,0.0271,0.0272,0.0274,0.0261,0,0,0,0,0,0,-0.0252,-0.0225,-0.0203,-0.0123,-0.0097,0.0003,0.0008,0.0019,0.005,0.0051,0.0092,0.0097,0.0118,0.0155,0.0164,0.0179,0.0163,0.027,0.0272,0.0273,0.026,0.0262,0.0263,0,0,0,0,0,-0.0261,-0.0229,-0.0203,-0.0181,-0.0065,0.0004,0.0017,0.0053,0.0051,0.0064,0.0088,0.0096,0.0173,0.0159,0.0169,0.0186,0.0269,0.0271,0.0273,0.0259,0.0261,0.0263,0,0,0,0,0,0,-0.0333,-0.022,-0.0191,-0.0127,-0.0067,0.0009,0.003,0.0053,0.0084,0.0079,0.011,0.0118,0.0151,0.0175,0.0158,0.0226,0.0222,0.0227,0.0208,0.0211,0.0212,0.0213,0.0166,0,0,0,0,0,-0.0334,-0.0276,-0.0182,-0.0134,-0.0101,-0.0037,-0.0007,0.0019,0.0064,0.0077,0.0105,0.0137,0.0173,0.0193,0.0224,0.0267,0.0294,0.0285,0.0286,0.0287,0.0296,0.0366,0.0375,0.0282,0.0282,0.0282,0,0,-0.0341,-0.0279,-0.0242,-0.0146,-0.0095,-0.0052,-0.0023,0.0025,0.005,0.0079,0.011,0.014,0.0183,0.0224,0.0243,0.0244,0.0323,0.029,0.0291,0.0299,0.0369,0.0378,0.0386,0.0283,0.0283,0.0283,0,0,-0.0359,-0.0277,-0.0249,-0.0192,-0.0117,-0.0068,-0.0056,0.0018,0.0041,0.0081,0.0107,0.0149,0.0197,0.0241,0.0267,0.0301,0.0324,0.0307,0.0323,0.0391,0.0399,0.0407,0.0426,0.0436,0.0314,0.0314,0.0314,0,-0.0382,-0.0336,-0.0235,-0.0203,-0.0166,-0.0079,-0.0062,-0.0005,0.0062,0.0093,0.0082,0.0183,0.0208,0.0286,0.0291,0.0305,0.0332,0.0308,0.0393,0.0401,0.0409,0.0428,0.0438,0.0314,0.0314,0.0314,0.0314,0,-0.0388,-0.035,-0.0329,-0.0252,-0.019,-0.0163,-0.0062,-0.0008,0.0024,0.0075,0.0146,0.0195,0.0259,0.0274,0.0288,0.0368,0.0362,0.0379,0.0384,0.0418,0.0435,0.0446,0.0313,0.0313,0.0313,0.0314,0,0,-0.0465,-0.036,-0.0362,-0.0337,-0.0225,-0.0176,-0.0098,-0.0011,0.0045,0.0108,0.017,0.0236,0.0277,0.031,0.035,0.0408,0.0468,0.0414,0.0418,0.0426,0.0589,0.049,0.0492,0.0504,0.0506,0.0508,0.0567,0,-0.0526,-0.0507,-0.0426,-0.039,-0.0364,-0.0234,-0.0161,-0.0052,0.0029,0.0121,0.0209,0.0271,0.029,0.0319,0.0388,0.0448,0.0503,0.0448,0.0562,0.0565,0.0468,0.0505,0.0501,0.0546,0.0578,0.058,0.0582,0,-0.0579,-0.0562,-0.0559,-0.0452,-0.0425,-0.0375,-0.0228,-0.0156,0.0023,0.0097,0.0208,0.0276,0.038,0.0384,0.0524,0.0489,0.0539,0.0583,0.0587,0.0511,0.0488,0.0525,0.0566,0.0601,0.0599,0.0598,0.0597,0,-0.0707,-0.0648,-0.0661,-0.0626,-0.0488,-0.0442,-0.036,-0.0178,-0.0101,0.0079,0.0137,0.0296,0.0338,0.0463,0.0523,0.0543,0.0649,0.0694,0.0657,0.0649,0.0676,0.0665,0.0802,0.0802,0.0802,0.0802,0.0802,0,-0.0804,-0.08,-0.072,-0.0721,-0.0686,-0.0544,-0.0467,-0.0334,-0.0161,-0.0064,0.0094,0.0171,0.0358,0.0433,0.0531,0.0594,0.0657,0.0663,0.0669,0.0665,0.0653,0.0731,0.0722,0.0804,0.0804,0.0803,0.0803,0,-0.0902,-0.0873,-0.0863,-0.0774,-0.0744,-0.0706,-0.0543,-0.0453,-0.0305,-0.0174,-0.0127,0.0069,0.0178,0.0315,0.0486,0.0554,0.0656,0.0658,0.0602,0.0599,0.0621,0.0611,0.0684,0.0681,0.0678,0.0676,0.0675,0,-0.0941,-0.0963,-0.0922,-0.0902,-0.0861,-0.0787,-0.0704,-0.0534,-0.0431,-0.0245,-0.0188,-0.0072,0.0065,0.0234,0.0376,0.0529,0.0557,0.0575,0.0626,0.0616,0.0615,0.0608,0.0601,0.066,0.0658,0.0657,0.0656,0,-0.1006,-0.1004,-0.0994,-0.0973,-0.092,-0.0842,-0.0731,-0.0684,-0.0476,-0.0369,-0.0217,-0.0112,0.0044,0.0219,0.0343,0.0432,0.0561,0.0548,0.0597,0.0657,0.059,0.0589,0.0585,0.0644,0.0645,0.0646,0.0647,0.0647,-0.104,-0.1046,-0.104,-0.0999,-0.0943,-0.0861,-0.0807,-0.0683,-0.0556,-0.0373,-0.0278,-0.0109,0.0058,0.0255,0.0356,0.043,0.0468,0.0536,0.0543,0.0552,0.0505,0.0434,0.0449,0.0449,0.0449,0.0449,0.0449,0,-0.1056,-0.1051,-0.1037,-0.0988,-0.0917,-0.088,-0.0771,-0.0696,-0.0567,-0.0421,-0.0265,-0.0069,0.0104,0.0233,0.036,0.0455,0.05,0.0451,0.0528,0.0538,0.0547,0.0504,0.0446,0.0446,0.0446,0.0446,0,0,-0.1061,-0.1059,-0.1044,-0.0949,-0.0904,-0.0819,-0.0763,-0.0664,-0.0556,-0.0393,-0.0266,-0.0096,0.0099,0.0194,0.0318,0.0378,0.0425,0.037,0.0364,0.045,0.0458,0.0588,0.0529,0,0,0,0,0]}],[{"header":{"parameterUnit":"m.s-1","parameterCategory":2,"la1":30.2991,"la2":30.254,"lo1":-89.0895,"lo2":-89.0444,"dy":0.0017,"dx":0.0017,"nx":28,"ny":28,"refTime":"2024-05-20T09:00:00:Z","depth":"4","parameterNumber":2,"parameterNumberName":"U-component_of_CURRENTS"},"data":[0,0,0,0,0,0,0,0,0,0,0,0,0,0,0,0,0,0,0,0,0,0,0,0,0,0,0,0,0,0,0,0,0,0,0,0,0,0,0,0,0,0,0,0,0,0,0,0,0,0,0,0,0,0,0,0,0,0,-0.0582,-0.0583,0,-0.06,-0.06,-0.06,-0.0586,-0.0586,-0.0586,-0.0585,-0.0659,-0.0661,-0.0663,0,0,0,0,0,0,0,0,0,0,0,0,0,-0.0594,-0.0594,-0.0582,-0.0583,-0.0583,-0.06,-0.06,-0.06,-0.0586,-0.0586,-0.0586,-0.0585,-0.0658,-0.0661,-0.0663,0,0,0,0,0,0,0,0,0,0,0,0,0,-0.0595,-0.0593,-0.0582,-0.0581,-0.0581,-0.06,-0.06,-0.06,-0.0586,-0.0586,-0.0585,-0.0585,-0.0657,-0.066,-0.0664,-0.0694,0,0,-0.0674,-0.0675,0,0,0,0,0,0,0,0,-0.0595,-0.0594,-0.058,-0.0581,-0.0581,-0.0593,-0.0632,-0.0635,-0.0586,-0.0581,-0.0585,-0.0585,-0.0645,-0.0649,-0.0648,-0.0697,-0.07,-0.0674,-0.0676,-0.0678,-0.0679,0,0,0,0,0,0,0,-0.0595,-0.0594,-0.0586,-0.0581,-0.0582,-0.06,-0.0598,-0.0632,-0.0614,-0.0581,-0.0581,-0.0589,-0.0645,-0.0645,-0.065,-0.0701,-0.0674,-0.0677,-0.0679,-0.0681,-0.0779,-0.0779,0,0,0,0,0,0,-0.0597,-0.0593,-0.0586,-0.0587,-0.0591,-0.06,-0.0598,-0.0587,-0.0612,-0.0616,-0.0589,-0.0588,-0.0639,-0.0646,-0.0652,-0.0734,-0.0678,-0.0681,-0.0683,-0.0778,-0.0779,-0.078,0,0,0,0,0,0,-0.0596,-0.0595,-0.0585,-0.0595,-0.0595,-0.06,-0.0588,-0.0588,-0.0596,-0.0618,-0.0622,-0.0599,-0.0639,-0.0648,-0.0687,-0.0735,-0.0682,-0.0685,-0.0778,-0.0778,-0.0779,-0.087,0,0,0,0,0,0,-0.0596,-0.0594,-0.0585,-0.0594,-0.0594,-0.0597,-0.0589,-0.0589,-0.0603,-0.0602,-0.0628,-0.0633,-0.0639,-0.0682,-0.0691,-0.0739,-0.0688,-0.0777,-0.0778,-0.0779,-0.0866,-0.0874,-0.088,0,0,0,0,0,-0.0596,-0.058,-0.0584,-0.0584,-0.0581,-0.0597,-0.0599,-0.06,-0.0604,-0.0606,-0.0627,-0.0633,-0.0695,-0.0686,-0.0695,-0.0746,-0.0776,-0.0778,-0.0779,-0.0863,-0.0872,-0.088,0,0,0,0,0,0,-0.0587,-0.0578,-0.0582,-0.0565,-0.0585,-0.0596,-0.0599,-0.0609,-0.0627,-0.0635,-0.0648,-0.0656,-0.0709,-0.0705,-0.0694,-0.0771,-0.0734,-0.0737,-0.0794,-0.0803,-0.081,-0.0818,-0.0691,0,0,0,0,0,-0.0582,-0.0564,-0.0575,-0.057,-0.0576,-0.0594,-0.0602,-0.0613,-0.0632,-0.0639,-0.0657,-0.0681,-0.072,-0.0742,-0.0764,-0.0814,-0.078,-0.0846,-0.0853,-0.0859,-0.0868,-0.0849,-0.0856,-0.0784,-0.0784,-0.0784,0,0,-0.0587,-0.0575,-0.0571,-0.0567,-0.0581,-0.0594,-0.0597,-0.0619,-0.0644,-0.0648,-0.0682,-0.0711,-0.0736,-0.0789,-0.0812,-0.0796,-0.0857,-0.0861,-0.0867,-0.0872,-0.0852,-0.0859,-0.0865,-0.0785,-0.0785,-0.0785,0,0,-0.0589,-0.0572,-0.0563,-0.0575,-0.0597,-0.0604,-0.0615,-0.0638,-0.0658,-0.0705,-0.0717,-0.0756,-0.0814,-0.0832,-0.0855,-0.0908,-0.0894,-0.0934,-0.0988,-0.097,-0.0976,-0.0981,-0.0931,-0.0931,-0.094,-0.094,-0.094,0,-0.0596,-0.0578,-0.0571,-0.0575,-0.0592,-0.061,-0.063,-0.0653,-0.069,-0.0713,-0.0724,-0.0805,-0.0828,-0.0894,-0.0932,-0.0927,-0.0914,-0.0962,-0.0981,-0.0985,-0.0989,-0.0936,-0.0935,-0.0944,-0.0944,-0.0943,-0.0943,0,-0.0596,-0.0591,-0.0593,-0.0594,-0.0613,-0.0632,-0.0668,-0.0677,-0.0712,-0.0752,-0.0826,-0.0863,-0.0904,-0.0936,-0.0972,-0.1028,-0.1008,-0.0992,-0.0965,-0.1002,-0.0943,-0.094,-0.0951,-0.0949,-0.0948,-0.0947,0,0,-0.0584,-0.0588,-0.0592,-0.061,-0.0626,-0.0652,-0.067,-0.0707,-0.0727,-0.0795,-0.0829,-0.094,-0.0975,-0.1001,-0.1041,-0.1062,-0.1085,-0.1072,-0.1069,-0.103,-0.1044,-0.1022,-0.1015,-0.1099,-0.1099,-0.11,-0.0987,0,-0.0588,-0.0621,-0.0604,-0.0641,-0.067,-0.0665,-0.0684,-0.0728,-0.0764,-0.0792,-0.0866,-0.0923,-0.0998,-0.1033,-0.1076,-0.1075,-0.1087,-0.1116,-0.1006,-0.1002,-0.0985,-0.1014,-0.1101,-0.0984,-0.0984,-0.0983,-0.0983,0,-0.0573,-0.0614,-0.0665,-0.0682,-0.069,-0.0718,-0.074,-0.0762,-0.0796,-0.081,-0.0877,-0.0926,-0.0991,-0.1028,-0.1062,-0.1092,-0.1092,-0.1087,-0.1082,-0.103,-0.0975,-0.0941,-0.0976,-0.0977,-0.0977,-0.0978,-0.0978,0,-0.0599,-0.0627,-0.068,-0.0697,-0.0734,-0.0754,-0.0773,-0.0805,-0.0813,-0.0836,-0.0844,-0.0909,-0.0948,-0.0965,-0.1017,-0.1035,-0.1024,-0.1005,-0.0972,-0.0967,-0.098,-0.0976,-0.1012,-0.1012,-0.1013,-0.1013,-0.1013,0,-0.0587,-0.0622,-0.0716,-0.0757,-0.0805,-0.0833,-0.0864,-0.0846,-0.0853,-0.0883,-0.0901,-0.0928,-0.0953,-0.0971,-0.0985,-0.0982,-0.0983,-0.0986,-0.0949,-0.1016,-0.1018,-0.0976,-0.0973,-0.1009,-0.101,-0.101,-0.1011,0,-0.0584,-0.0633,-0.0699,-0.0793,-0.082,-0.0878,-0.0901,-0.0901,-0.0913,-0.0934,-0.0941,-0.094,-0.0951,-0.0957,-0.0943,-0.0937,-0.0909,-0.0908,-0.0964,-0.093,-0.0857,-0.0861,-0.0808,-0.0807,-0.0805,-0.0804,-0.0804,0,-0.0573,-0.0625,-0.0745,-0.0769,-0.0815,-0.0893,-0.0906,-0.0925,-0.0939,-0.0964,-0.0977,-0.0985,-0.0997,-0.0918,-0.0929,-0.0865,-0.0891,-0.0833,-0.0881,-0.0873,-0.0842,-0.0847,-0.0852,-0.0802,-0.0801,-0.0801,-0.0801,0,-0.0565,-0.062,-0.0674,-0.0745,-0.0795,-0.0836,-0.0904,-0.0916,-0.0951,-0.0977,-0.0973,-0.0949,-0.095,-0.0901,-0.0864,-0.0842,-0.0835,-0.082,-0.0822,-0.0867,-0.0865,-0.0836,-0.0842,-0.0796,-0.0797,-0.0797,-0.0798,0,-0.0531,-0.0561,-0.0621,-0.0663,-0.0717,-0.0766,-0.0822,-0.0861,-0.0881,-0.0952,-0.0962,-0.0956,-0.0969,-0.0893,-0.0872,-0.0826,-0.0813,-0.0775,-0.078,-0.0784,-0.0835,-0.0833,-0.0727,0,0,0,0,0,-0.0478,-0.0474,-0.0511,-0.056,-0.0613,-0.0653,-0.0773,-0.0835,-0.0945,-0.0925,-0.0937,-0.0935,-0.0877,-0.0861,-0.0805,-0.0853,-0.081,-0.0784,-0.0768,-0.0772,-0.0777,-0.0843,0,0,0,0,0,0,-0.0425,-0.0444,-0.0473,-0.0458,-0.0467,-0.0532,-0.0621,-0.0712,-0.0729,-0.0828,-0.0798,-0.0853,-0.0804,-0.0866,-0.0763,-0.0763,-0.0734,-0.0788,-0.0785,-0.077,-0.0774,-0.0778,-0.0848,0,0,0,0,0]},{"header":{"parameterUnit":"m.s-1","parameterCategory":2,"la1":30.2991,"la2":30.254,"lo1":-89.0895,"lo2":-89.0444,"dy":0.0017,"dx":0.0017,"nx":28,"ny":28,"refTime":"2024-05-20T09:00:00:Z","depth":"4","parameterNumber":3,"parameterNumberName":"V-component_of_CURRENTS"},"data":[0,0,0,0,0,0,0,0,0,0,0,0,0,0,0,0,0,0,0,0,0,0,0,0,0,0,0,0,0,0,0,0,0,0,0,0,0,0,0,0,0,0,0,0,0,0,0,0,0,0,0,0,0,0,0,0,0,0,-0.0478,-0.0478,0,-0.05,-0.0501,-0.0501,-0.0507,-0.0507,-0.0506,-0.0506,-0.0507,-0.0507,-0.0508,0,0,0,0,0,0,0,0,0,0,0,0,0,-0.0446,-0.0447,-0.0478,-0.0478,-0.0478,-0.05,-0.0501,-0.0501,-0.0507,-0.0507,-0.0506,-0.0506,-0.0507,-0.0507,-0.0508,0,0,0,0,0,0,0,0,0,0,0,0,0,-0.0466,-0.0447,-0.0478,-0.0481,-0.0482,-0.05,-0.0501,-0.0501,-0.0507,-0.0507,-0.0506,-0.0505,-0.0507,-0.0507,-0.0508,-0.0524,0,0,-0.051,-0.051,0,0,0,0,0,0,0,0,-0.0465,-0.0468,-0.0481,-0.0481,-0.0481,-0.0498,-0.049,-0.0507,-0.0507,-0.0501,-0.0506,-0.0505,-0.05,-0.0501,-0.0511,-0.0524,-0.0524,-0.051,-0.051,-0.051,-0.051,0,0,0,0,0,0,0,-0.0464,-0.0467,-0.049,-0.0481,-0.0481,-0.0484,-0.0486,-0.0493,-0.0505,-0.0501,-0.0501,-0.0499,-0.0501,-0.0511,-0.0511,-0.0524,-0.051,-0.051,-0.0511,-0.0511,-0.0564,-0.0565,0,0,0,0,0,0,-0.0456,-0.0466,-0.0489,-0.049,-0.0468,-0.0484,-0.0487,-0.0495,-0.0506,-0.0506,-0.0499,-0.0499,-0.051,-0.0511,-0.0511,-0.0552,-0.051,-0.0511,-0.0511,-0.0563,-0.0564,-0.0565,0,0,0,0,0,0,-0.0455,-0.0458,-0.0488,-0.0475,-0.0479,-0.0485,-0.0495,-0.0496,-0.0509,-0.0504,-0.0505,-0.0511,-0.051,-0.0511,-0.0528,-0.0551,-0.0511,-0.0512,-0.0562,-0.0563,-0.0565,-0.062,0,0,0,0,0,0,-0.0454,-0.0458,-0.0467,-0.0475,-0.0479,-0.0504,-0.0495,-0.0497,-0.0507,-0.0507,-0.0514,-0.0513,-0.0509,-0.0527,-0.0528,-0.0551,-0.0512,-0.056,-0.0562,-0.0564,-0.0617,-0.0623,-0.0629,0,0,0,0,0,-0.0453,-0.0473,-0.0468,-0.0471,-0.049,-0.0504,-0.0507,-0.0511,-0.0509,-0.052,-0.0526,-0.0513,-0.054,-0.0529,-0.053,-0.0554,-0.0559,-0.0562,-0.0564,-0.0614,-0.0622,-0.0629,0,0,0,0,0,0,-0.0467,-0.0475,-0.047,-0.0491,-0.0495,-0.0504,-0.052,-0.0516,-0.0532,-0.0534,-0.0528,-0.0529,-0.0557,-0.0546,-0.0533,-0.0574,-0.0547,-0.055,-0.0585,-0.0592,-0.0598,-0.06,-0.0513,0,0,0,0,0,-0.0472,-0.049,-0.049,-0.0508,-0.0513,-0.0517,-0.0524,-0.0523,-0.0533,-0.054,-0.0546,-0.0553,-0.0568,-0.0571,-0.0584,-0.0603,-0.0565,-0.0618,-0.0624,-0.0629,-0.0632,-0.0605,-0.0608,-0.0573,-0.0573,-0.0573,0,0,-0.0485,-0.0489,-0.0501,-0.0512,-0.0521,-0.0537,-0.0522,-0.0538,-0.0556,-0.0537,-0.0575,-0.0578,-0.058,-0.0609,-0.0619,-0.06,-0.0615,-0.0632,-0.0637,-0.0636,-0.0608,-0.0611,-0.0614,-0.0575,-0.0574,-0.0574,0,0,-0.0512,-0.0522,-0.0542,-0.0546,-0.0551,-0.0559,-0.0563,-0.0574,-0.0587,-0.0613,-0.0611,-0.063,-0.0647,-0.0658,-0.0664,-0.0708,-0.0653,-0.0707,-0.0733,-0.0707,-0.071,-0.0711,-0.0643,-0.0639,-0.0703,-0.0703,-0.0703,0,-0.0521,-0.0545,-0.055,-0.0561,-0.0573,-0.057,-0.0592,-0.0608,-0.0623,-0.0633,-0.0632,-0.0665,-0.0676,-0.0702,-0.0725,-0.0724,-0.0677,-0.0706,-0.0714,-0.0715,-0.0716,-0.0646,-0.064,-0.0706,-0.0706,-0.0705,-0.0705,0,-0.0553,-0.0572,-0.0588,-0.0606,-0.0621,-0.0641,-0.0654,-0.067,-0.0684,-0.0692,-0.0723,-0.0737,-0.075,-0.0762,-0.0763,-0.0777,-0.0729,-0.0729,-0.0694,-0.0722,-0.0647,-0.064,-0.071,-0.0709,-0.0708,-0.0708,0,0,-0.0571,-0.0604,-0.0608,-0.0618,-0.0646,-0.0657,-0.0696,-0.0722,-0.0729,-0.0757,-0.0766,-0.0821,-0.0814,-0.082,-0.0818,-0.0803,-0.0776,-0.0769,-0.0767,-0.0697,-0.0675,-0.0591,-0.0574,-0.0767,-0.0767,-0.0766,-0.061,0,-0.0593,-0.0626,-0.0643,-0.0678,-0.0698,-0.0709,-0.0741,-0.076,-0.0775,-0.078,-0.0799,-0.081,-0.0839,-0.0832,-0.0836,-0.0783,-0.0763,-0.0816,-0.0661,-0.0656,-0.0575,-0.0566,-0.0766,-0.0604,-0.0603,-0.0601,-0.06,0,-0.0615,-0.0634,-0.0678,-0.0705,-0.0715,-0.0738,-0.0768,-0.0789,-0.0799,-0.0806,-0.0821,-0.0814,-0.0816,-0.0827,-0.0769,-0.0792,-0.075,-0.0709,-0.0701,-0.0601,-0.056,-0.0576,-0.0586,-0.0588,-0.0589,-0.059,-0.059,0,-0.0622,-0.0656,-0.0696,-0.0705,-0.0739,-0.0759,-0.0778,-0.0799,-0.0795,-0.0806,-0.0776,-0.0797,-0.0756,-0.0742,-0.0676,-0.0714,-0.0569,-0.0607,-0.0491,-0.0482,-0.0579,-0.0579,-0.0571,-0.0571,-0.0571,-0.0572,-0.0572,0,-0.0636,-0.0662,-0.0697,-0.0712,-0.0739,-0.0762,-0.0772,-0.0795,-0.0784,-0.0751,-0.0782,-0.0726,-0.0729,-0.0647,-0.0636,-0.0511,-0.0536,-0.0481,-0.0441,-0.0602,-0.0607,-0.0571,-0.0574,-0.0566,-0.0567,-0.0568,-0.0569,0,-0.064,-0.0667,-0.0701,-0.0738,-0.0745,-0.0764,-0.0755,-0.0745,-0.0741,-0.0687,-0.0678,-0.0633,-0.0526,-0.0495,-0.0412,-0.0409,-0.0334,-0.0288,-0.0409,-0.038,-0.0276,-0.0283,-0.0154,-0.015,-0.0146,-0.0143,-0.0141,0,-0.0645,-0.0665,-0.0713,-0.072,-0.0738,-0.0745,-0.0741,-0.0739,-0.0707,-0.0611,-0.0571,-0.045,-0.0416,-0.0212,-0.022,-0.0151,-0.0168,-0.0127,-0.0277,-0.0262,-0.0236,-0.0248,-0.026,-0.0135,-0.0134,-0.0133,-0.0132,0,-0.0644,-0.0673,-0.0705,-0.072,-0.0724,-0.071,-0.0694,-0.0656,-0.0614,-0.0584,-0.0429,-0.0344,-0.0196,-0.0138,-0.0055,-0.0035,-0.0165,-0.0092,-0.0102,-0.0242,-0.0238,-0.0218,-0.0233,-0.012,-0.0122,-0.0123,-0.0124,0,-0.0643,-0.0667,-0.0705,-0.0712,-0.0715,-0.0688,-0.0674,-0.059,-0.0543,-0.0432,-0.0358,-0.0241,-0.0167,-0.0069,-0.0006,0.0044,0.0006,-0.0035,-0.005,-0.0063,-0.0111,-0.0098,0.0115,0,0,0,0,0,-0.0628,-0.0656,-0.0677,-0.0693,-0.0695,-0.0691,-0.0645,-0.0617,-0.0543,-0.0418,-0.0385,-0.0248,-0.0107,-0.0052,0.0015,-0.0003,-0.0028,0.007,-0.0095,-0.0053,-0.0067,-0.0136,0,0,0,0,0,0,-0.0618,-0.0656,-0.0679,-0.0671,-0.0672,-0.0661,-0.0636,-0.0589,-0.0504,-0.0417,-0.0333,-0.0252,-0.0124,-0.0141,0.0011,0.0028,-0.0073,0.0142,0.0143,-0.0045,-0.0057,-0.0069,-0.0145,0,0,0,0,0]}]]